DELTA 1 DEB

Satellite information

Favourite Embed

Satellite Type and Status

DEBRISIN ORBIT

Key statistics

Satellite DELTA 1 DEB at a glance.

Uptime

17231

Days in orbit

Revolutions

≈ 14.1

Per day

Orbit

SSO

Sun Synchronous Orbit

Inclination

99.1

Latest

Satellite identification and parameters

Extended collection of information and parameters for DELTA 1 DEB.

Object identification

Identified? True

Debris? True

Object name: DELTA 1 DEB

International designator: 1978-026EJ

Object number (NORAD): 12290

Object ID (CCSDS): 12290

Country: UNITED STATES OF AMERICA (US)

Current information (Y/N): Y

RCS size: SMALL

Orbital parameters

Period: 101.903 minutes

Inclination: 99.1104 deg

SMA: 7226.88 km

Apoapsis: 907.555 km

Periapsis: 789.936 km

RAAN: 118.0892 deg

Eccentricy: 0.0081376

Argument of periapsis: 5.3901 deg

Mean anomaly: 354.8127 deg

Mean motion: 14.13111573 rev/day

Mean motion (dot): 0.00000671 rev/day2

B* drag term: 0.00037223 1/REarth

Two-line elements (TLE)

Creation date: May 7, 2025, 10:26 p.m.

Reference frame: TEME

Reference center: EARTH

Epoch: May 7, 2025, 9:43 p.m. UTC

TLE line 0: 0 DELTA 1 DEB

TLE line 1: 1 12290U 78026EJ 25127.90502741 .00000671 00000-0 37223-3 0 9996

TLE line 2: 2 12290 99.1104 118.0892 0081376 5.3901 354.8127 14.13111573256765

Live tracking on map

Real-time ground track for satellite DELTA 1 DEB.

In-orbit conjunctions

A list of the most updated potential collisions computed for object DELTA 1 DEB.

Target Orbit TCA Probability of collision Miss distance Type
FENGYUN 1C DEB SSO 2025-03-10 02:47:06 0.0001444727 342.0 (m) DEBRIS
FENGYUN 1C DEB SSO 2024-12-03 07:26:13 0.0001665209 75.0 (m) DEBRIS
THORAD AGENA D DEB SSO 2024-11-09 10:38:02 0.0008329825 356.0 (m) DEBRIS

Associated space launch

Earth observation satellite

DELTA 1 DEB was lifted into orbit during the mission ‘Delta 2910 | Landsat 3’, on board a Delta 2910 space rocket.

The launch took place on March 5, 1978, 5:54 p.m. from Space Launch Complex 2W.

For more information about the launch, click the button.

Launch to space Delta 2910 | Landsat 3
Delta 2910 | Landsat 3

Agency: N/A

Status: Launch Successful

Launch date: March 5, 1978, 5:54 p.m. UTC

Rocket: Delta 2910

Launch pad: Space Launch Complex 2W

Location: Vandenberg SFB, CA, USA

...

Latest news about this satellite

There are no fresh news available about this satellite. Check back as we update our databases every day.


Newsletter sign-up

Weekly statistics, charts and insights to help you stay on top of the space industry.